Temperature
20 20 19 19 19 19 18 18 18 18 17 17 17 17 17 17 17 17 17 16 16 16 16 16 16 16 16 16 16 15 15 15 15 15 15 15 15 15 15 15 14 14 14
21 20 19 19 18 18 18 18 18 17 17 17 17 17 17 17 16 16 16 16 16 16 16 16 16 16 15 15 15 15 15 15 15 15 15 14 14 14 15 14 14 14 14
21 20 19 19 18 18 18 18 18 17 17 17 17 17 17 16 16 16 16 16 16 16 16 16 16 15 15 15 15 15 15 15 15 15 15 15 14 14 14 14 14 14 14
21 20 19 19 18 18 18 18 18 18 17 17 17 17 16 16 16 16 16 16 16 16 16 16 16 15 15 15 15 15 15 15 15 15 15 15 15 14 14 14 14 14 14
20 20 19 19 19 18 18 18 18 17 17 17 17 17 17 16 16 16 16 16 16 16 16 16 15 15 15 15 15 15 15 15 15 15 15 15 15 15 14 13 13 13 13
20 20 19 19 18 18 18 18 18 17 17 17 17 17 16 16 16 16 16 16 16 16 16 16 16 15 15 15 15 15 15 15 15 15 15 15 15 15 15 14 13 13 13
20 20 19 19 18 18 18 18 17 17 17 17 17 17 16 16 16 16 16 16 16 16 16 16 15 15 15 15 15 15 15 15 15 15 15 15 15 15 15 14 14 13 13
20 20 19 19 18 18 17 17 17 17 17 17 17 17 17 16 16 16 16 16 16 16 16 16 15 15 15 15 15 15 15 15 15 15 15 15 15 15 14 14 14 13 13
20 19 19 18 18 18 17 17 17 17 17 17 17 17 17 17 16 16 16 16 16 15 15 15 15 15 15 15 15 15 15 15 15 15 14 14 14 14 14 14 14 14 13
20 19 18 18 18 17 17 17 17 17 17 17 17 17 16 16 16 16 16 16 16 16 15 15 15 15 15 15 15 15 15 15 14 14 14 14 14 14 14 14 13 13 13
19 19 18 18 17 17 17 17 17 17 17 17 17 16 16 16 16 16 16 16 15 15 15 15 15 15 15 15 15 15 14 14 14 14 14 14 14 14 14 13 13 13 13
19 18 18 18 17 17 17 17 17 17 16 16 16 16 16 16 16 16 16 15 15 15 15 15 15 15 15 15 15 14 14 14 14 14 14 14 14 14 13 13 13 13 13
19 18 18 17 17 17 17 16 16 16 16 16 16 16 16 16 16 15 15 15 15 15 15 15 15 15 15 15 15 14 14 14 14 14 14 13 13 13 13 13 13 13 12
18 18 17 17 17 16 16 16 16 16 16 16 16 16 16 15 15 15 15 15 15 15 15 15 15 15 14 14 14 14 14 14 14 14 14 13 13 13 13 13 13 12 12
18 17 17 17 16 16 16 16 16 16 16 16 15 15 15 15 15 15 15 15 15 15 15 15 15 14 14 14 14 14 14 14 13 13 13 13 13 13 13 13 12 12 12
18 17 17 16 16 16 16 16 16 16 15 15 15 15 15 15 15 15 15 15 15 15 15 14 14 14 14 14 14 13 13 13 13 13 13 13 13 13 13 12 12 12 12
18 17 16 16 16 16 15 15 15 15 15 15 15 15 15 15 15 15 15 15 14 14 14 14 14 14 14 14 13 13 13 13 13 13 13 13 12 12 12 12 12 12 12
17 17 16 16 16 16 15 15 15 15 15 15 15 15 15 15 14 14 14 14 14 14 14 14 14 14 14 14 13 13 13 13 13 13 12 12 12 12 12 12 12 12 11
17 16 16 16 16 15 15 15 15 15 15 15 15 14 14 14 14 14 14 14 14 14 14 14 14 14 14 13 13 13 13 13 13 12 12 12 12 12 12 12 11 11 11
16 16 16 15 15 15 15 15 15 14 14 14 14 14 14 14 14 14 14 14 14 13 13 13 13 13 13 13 13 13 13 13 13 12 12 12 12 12 11 11 11 11 11
16 16 15 15 15 15 15 15 14 14 14 14 14 14 14 14 14 13 13 13 13 13 13 13 13 13 13 13 13 13 12 12 12 12 12 12 11 11 11 11 11 11 10
15 15 15 15 15 14 14 14 14 14 14 14 14 14 13 13 13 13 13 13 13 13 13 13 13 13 13 13 13 12 12 12 12 12 12 11 11 11 11 11 11 10 10
15 15 15 14 14 14 14 14 14 14 14 14 13 13 13 13 13 13 13 13 13 13 13 12 12 12 12 12 12 12 12 12 12 11 11 11 11 11 11 10 10 10 10
15 14 14 14 14 14 14 14 14 14 13 13 13 13 13 13 13 13 13 13 13 12 12 12 12 12 12 12 12 12 12 11 11 11 11 11 10 10 10 10 10 10 9
14 14 14 14 14 14 14 13 13 13 13 13 13 13 13 13 13 13 13 12 12 12 12 12 12 12 12 12 12 12 12 11 11 11 10 10 10 10 10 10 9 9 9
14 14 14 13 13 13 13 13 13 13 13 13 12 12 12 12 12 12 12 12 12 12 12 12 12 12 12 12 12 12 11 11 11 10 10 10 10 10 10 9 9 9 9
Wind_Speed
6 5 4 4 3 2 2 4 5 4 4 3 2 3 2 1 2 2 2 3 2 4 5 2 2 3 3 2 3 3 3 2 2 2 2 2 3 3 3 3 4 5 7
6 6 5 5 4 3 2 3 5 5 5 4 3 3 3 2 2 1 2 2 3 3 3 3 3 3 2 2 2 2 2 1 1 2 2 1 2 3 3 2 3 4 6
5 6 5 5 4 4 4 3 4 5 6 6 3 3 2 1 2 2 1 1 2 2 2 3 3 3 3 2 1 2 2 1 1 1 2 2 1 1 2 3 3 3 3
4 5 6 5 5 4 4 4 5 5 6 7 5 4 3 2 3 3 2 2 2 2 2 3 3 3 3 3 2 2 1 1 1 0 0 1 3 2 0 2 2 3 3
4 4 5 5 5 5 4 3 5 4 5 6 6 4 3 3 3 3 3 3 2 2 2 2 3 3 3 3 1 1 1 1 1 1 0 1 0 1 2 1 0 1 2
4 4 4 4 4 4 4 3 3 3 4 5 6 5 4 3 3 3 3 2 2 2 2 2 2 3 3 3 2 2 1 0 0 0 1 1 1 1 1 2 2 1 1
4 4 5 5 4 5 5 4 4 3 4 5 5 6 5 5 4 4 3 3 2 2 2 2 2 2 2 3 3 2 2 1 0 0 0 0 0 0 1 2 2 1 1
4 4 4 4 5 6 6 5 5 5 4 5 4 5 5 4 3 4 3 3 2 2 2 3 3 2 2 2 2 1 1 1 1 1 1 1 1 1 2 2 2 1 0
4 4 3 4 4 5 5 5 4 5 5 5 5 4 5 5 4 4 4 3 3 3 3 3 3 3 2 2 2 2 1 1 1 1 2 1 1 2 2 2 2 3 1
3 4 4 3 4 4 4 4 4 4 4 5 5 4 4 5 5 4 4 4 4 3 3 3 3 3 3 3 3 2 1 2 2 2 2 2 1 2 2 2 1 2 2
3 3 3 3 3 4 4 4 4 4 3 4 4 4 4 4 4 4 4 4 4 4 3 4 4 3 3 4 3 3 2 3 2 2 3 2 2 2 1 1 1 2 3
3 3 3 3 2 2 3 3 3 3 3 3 4 4 4 4 4 4 4 3 3 4 4 3 3 3 3 4 4 3 2 2 2 2 3 2 2 2 1 2 2 2 3
4 3 3 3 2 2 3 3 2 2 2 2 3 4 4 4 4 4 4 4 3 4 3 3 3 3 3 3 3 3 3 2 2 2 2 2 3 2 2 2 2 2 3
3 3 3 2 2 2 2 3 3 2 2 2 3 3 4 4 4 3 3 3 3 3 3 3 3 3 3 3 3 3 3 3 2 2 2 2 2 2 2 2 2 3 3
3 3 3 2 2 2 2 3 3 3 3 3 3 2 3 3 3 4 3 2 2 2 3 4 3 3 2 2 2 2 3 3 3 2 3 3 4 5 4 3 3 3 2
3 3 2 2 2 2 2 2 3 3 3 3 3 2 2 3 4 4 3 3 2 2 3 3 4 4 3 3 3 2 2 3 3 3 3 4 4 6 7 8 7 5 3
3 2 2 2 2 2 2 2 3 3 3 3 3 3 2 3 3 4 4 3 3 3 3 3 4 4 4 4 3 3 2 2 2 2 3 3 4 5 4 5 6 6 6
3 2 1 1 1 2 2 2 3 3 3 3 2 2 2 3 3 3 3 3 3 3 3 3 3 4 4 4 4 3 2 1 1 2 3 3 3 3 4 4 4 3 3
2 2 1 1 2 2 2 2 3 3 3 3 3 2 3 3 4 4 3 3 3 3 3 3 4 5 4 4 4 3 2 2 2 2 2 3 3 4 5 4 4 4 2
1 1 1 1 1 2 3 3 3 4 3 3 3 3 2 3 4 5 4 2 3 3 3 3 3 4 4 4 4 4 2 2 2 2 2 2 3 4 5 4 4 3 2
1 1 1 1 1 2 3 3 2 2 3 3 2 2 2 3 4 4 4 4 4 3 3 3 3 3 3 4 4 4 2 2 2 2 2 2 4 4 4 3 2 4 3
2 1 1 1 2 3 3 2 2 2 2 2 2 3 3 3 3 4 4 4 4 4 4 4 3 2 3 4 4 4 3 2 2 2 2 3 5 4 3 2 2 3 3
2 2 2 2 2 3 3 3 2 2 2 2 3 3 3 3 3 4 4 4 4 4 4 4 4 3 3 3 5 5 4 3 2 2 3 5 6 4 3 2 3 3 2
2 3 3 3 3 3 3 3 2 2 3 2 3 3 3 3 3 3 3 3 4 4 4 4 4 3 3 3 3 3 3 3 3 2 3 5 5 3 3 3 2 2 2
3 3 3 3 3 3 3 3 3 3 3 2 2 3 3 3 3 3 3 4 4 5 5 4 4 5 5 6 8 6 5 4 4 4 2 2 2 2 2 2 2 2 2
3 3 4 4 4 4 4 4 4 4 4 3 3 2 2 2 3 3 2 1 3 5 6 6 6 4 5 7 9 9 7 7 8 5 3 3 4 4 4 4 3 3 3
Wind_Direction
159 148 143 133 129 139 145 142 145 152 131 122 123 118 108 102 96 105 105 115 106 98 104 98 84 76 83 100 110 106 98 79 92 85 65 43 49 76 65 52 59 67 78
154 146 152 150 160 159 171 161 160 154 137 130 140 136 130 136 118 103 95 116 124 122 123 119 112 102 93 88 96 103 107 136 143 124 105 58 20 32 59 56 57 57 60
168 162 161 161 166 174 176 180 157 155 141 138 138 135 123 136 122 126 110 102 103 104 110 125 127 141 136 133 151 156 148 193 235 129 128 135 150 48 18 48 58 53 44
175 166 167 170 172 178 180 178 160 161 153 149 153 159 156 155 152 149 157 158 118 111 100 125 141 144 135 144 199 166 165 157 231 273 265 128 137 144 85 9 50 65 60
180 169 167 173 174 167 164 160 157 160 159 160 156 167 160 153 146 143 155 152 133 135 149 157 145 144 143 155 166 123 164 179 181 179 167 72 132 162 160 177 182 46 57
172 164 163 160 159 150 150 155 153 149 150 156 157 173 164 159 152 154 153 145 137 160 168 149 137 148 159 164 160 159 155 194 58 82 119 139 147 196 146 166 165 126 77
161 152 153 155 159 157 159 161 159 159 164 174 175 176 173 173 174 164 155 150 155 167 187 166 161 157 159 161 156 162 162 172 139 61 51 99 278 181 117 127 146 129 142
142 144 152 158 157 159 166 171 178 178 178 186 184 174 169 165 169 163 159 164 166 174 177 171 160 144 144 138 129 144 163 163 160 154 105 67 31 60 94 126 132 132 97
132 133 134 153 158 163 167 171 181 182 187 191 187 185 172 167 169 167 163 164 165 172 164 166 158 153 144 136 139 142 134 102 93 93 88 73 48 56 75 102 134 145 140
128 139 146 152 166 161 166 179 189 193 195 195 190 187 177 170 169 168 167 171 169 167 163 158 155 158 160 152 140 122 120 116 106 93 86 70 57 64 67 66 44 95 132
127 133 136 142 147 156 173 191 190 183 190 196 186 177 172 168 168 164 168 168 164 168 177 169 160 162 163 143 136 148 158 151 148 134 115 98 86 87 87 80 55 60 100
128 129 122 120 134 159 168 182 188 182 191 190 172 178 177 175 170 164 165 173 175 181 179 158 154 163 153 147 148 155 140 135 136 134 132 133 111 102 92 98 91 91 105
125 126 126 136 143 148 164 172 176 169 166 168 171 181 174 176 170 172 177 184 187 184 174 162 161 150 140 145 146 151 144 133 123 121 132 130 120 129 121 112 102 108 110
126 119 124 136 132 137 153 158 149 146 162 165 173 189 178 175 169 171 174 178 182 178 170 153 143 141 150 149 150 150 143 131 120 96 95 92 93 108 127 126 116 114 111
139 135 145 148 145 165 171 156 148 159 165 156 161 179 162 162 150 146 162 157 149 146 131 134 133 123 114 109 118 142 145 132 124 117 112 102 98 86 86 95 90 105 118
146 142 152 144 163 172 164 158 165 167 159 153 154 158 150 146 145 152 158 151 160 146 131 132 127 120 115 106 103 91 126 135 144 157 149 134 117 101 93 92 86 91 111
139 140 150 156 176 174 164 171 173 162 156 147 149 149 149 141 149 152 140 147 148 132 129 132 133 132 129 116 111 101 100 117 146 152 142 128 126 125 118 104 94 80 77
146 151 167 179 185 167 163 166 160 156 148 147 145 146 145 142 142 132 134 153 150 148 154 153 152 139 132 120 110 105 122 130 137 139 137 129 129 126 126 132 117 97 78
128 141 177 197 182 158 150 164 162 160 157 163 172 166 163 159 154 150 155 159 149 155 163 160 156 145 141 136 131 125 148 142 132 110 104 125 131 123 127 131 132 130 123
98 115 165 214 140 135 146 156 162 167 172 178 187 179 179 171 167 167 165 161 158 163 160 163 161 152 149 153 152 151 157 156 148 123 100 101 117 119 128 147 148 152 166
138 157 180 170 135 147 154 157 159 169 177 178 180 177 182 182 178 169 164 163 164 168 176 170 158 151 157 156 153 152 155 169 165 152 137 118 119 117 118 132 166 177 158
175 177 157 143 142 149 149 153 161 147 141 158 175 180 184 187 172 159 166 170 167 171 177 170 159 157 159 155 162 165 168 154 153 166 167 160 146 133 134 139 138 139 128
187 170 164 166 172 161 155 174 175 153 159 177 182 181 180 174 164 166 177 174 173 177 185 175 175 176 170 159 157 167 168 159 139 140 149 159 159 149 150 154 148 142 143
185 176 178 192 185 176 177 187 169 167 180 185 187 187 186 175 166 162 167 171 180 184 188 187 188 183 177 168 169 174 170 161 145 133 135 146 155 155 162 167 179 186 180
188 185 195 207 207 200 192 181 174 175 189 192 195 198 188 175 168 171 183 186 192 190 190 195 190 183 192 195 182 178 186 185 177 150 136 145 155 170 170 173 184 188 190
201 200 201 209 219 214 200 188 188 192 195 200 200 199 187 170 168 165 156 144 183 190 192 190 188 200 195 178 178 183 181 175 165 155 171 185 188 188 188 190 193 195 200
Height
1522 1523 1525 1526 1527 1528 1529 1530 1531 1533 1534 1536 1538 1539 1541 1542 1543 1544 1545 1546 1547 1548 1549 1550 1551 1552 1552 1553 1554 1555 1556 1557 1557 1557 1557 1558 1558 1558 1558 1558 1558 1557 1557
1520 1522 1523 1524 1526 1527 1528 1529 1530 1532 1533 1535 1537 1539 1540 1541 1543 1544 1545 1546 1547 1548 1549 1550 1551 1551 1552 1553 1554 1555 1556 1557 1557 1558 1558 1558 1560 1559 1559 1559 1559 1558 1558
1518 1520 1521 1523 1524 1525 1527 1528 1529 1531 1532 1534 1536 1538 1539 1541 1542 1543 1544 1545 1546 1547 1548 1549 1550 1551 1552 1553 1554 1555 1556 1556 1557 1558 1558 1558 1558 1559 1560 1559 1559 1559 1558
1517 1518 1519 1521 1522 1524 1525 1527 1528 1530 1531 1533 1535 1537 1538 1539 1541 1542 1543 1545 1546 1546 1548 1549 1550 1551 1551 1552 1553 1554 1555 1556 1556 1557 1558 1558 1558 1558 1559 1560 1559 1559 1558
1515 1516 1518 1519 1521 1522 1524 1526 1527 1529 1530 1532 1534 1536 1537 1539 1540 1541 1542 1544 1545 1546 1547 1548 1549 1550 1551 1552 1552 1553 1554 1555 1556 1556 1556 1557 1557 1557 1557 1558 1558 1558 1558
1513 1514 1516 1518 1519 1521 1522 1524 1526 1528 1529 1531 1532 1534 1536 1538 1539 1540 1541 1542 1544 1545 1546 1547 1548 1549 1550 1551 1552 1553 1553 1554 1555 1555 1555 1556 1556 1556 1556 1556 1557 1557 1557
1510 1512 1514 1516 1517 1519 1521 1523 1525 1526 1528 1530 1531 1533 1535 1537 1538 1539 1540 1541 1543 1544 1545 1546 1547 1548 1549 1550 1551 1552 1553 1553 1553 1554 1554 1555 1555 1555 1555 1555 1556 1556 1556
1509 1511 1513 1514 1516 1518 1519 1521 1523 1525 1526 1528 1530 1532 1534 1535 1537 1538 1539 1540 1542 1543 1544 1545 1546 1547 1548 1549 1550 1551 1551 1552 1552 1553 1553 1553 1554 1554 1554 1554 1555 1555 1555
1508 1510 1512 1513 1515 1516 1518 1520 1521 1523 1524 1526 1528 1530 1532 1533 1535 1536 1538 1539 1541 1542 1543 1544 1545 1546 1547 1548 1549 1549 1550 1551 1551 1552 1552 1552 1552 1552 1553 1553 1553 1554 1553
1508 1509 1510 1512 1513 1514 1516 1518 1520 1521 1523 1525 1527 1528 1530 1532 1533 1535 1536 1537 1539 1541 1542 1542 1543 1545 1546 1546 1547 1548 1549 1550 1550 1551 1551 1551 1551 1551 1551 1552 1552 1552 1552
1507 1508 1509 1511 1512 1513 1515 1516 1518 1520 1521 1523 1525 1526 1528 1530 1532 1533 1534 1536 1538 1539 1540 1541 1542 1543 1544 1545 1546 1547 1548 1548 1549 1549 1549 1550 1550 1550 1550 1550 1551 1551 1551
1506 1508 1509 1510 1511 1512 1513 1515 1516 1518 1519 1521 1523 1525 1526 1528 1530 1531 1533 1534 1536 1537 1539 1540 1540 1542 1543 1543 1545 1546 1546 1547 1547 1548 1548 1549 1549 1549 1549 1550 1550 1550 1551
1506 1507 1508 1509 1510 1511 1512 1513 1515 1516 1518 1519 1521 1522 1524 1526 1528 1529 1531 1533 1534 1535 1537 1538 1539 1540 1541 1542 1543 1544 1545 1545 1546 1547 1547 1547 1548 1548 1548 1549 1549 1549 1550
1505 1506 1507 1508 1509 1510 1511 1512 1513 1515 1516 1517 1518 1520 1522 1523 1525 1527 1529 1531 1532 1533 1534 1535 1537 1538 1539 1540 1542 1543 1543 1544 1545 1545 1546 1546 1546 1547 1547 1548 1548 1548 1549
1504 1505 1506 1507 1508 1509 1510 1510 1512 1513 1514 1516 1517 1518 1520 1522 1523 1525 1527 1528 1530 1531 1532 1533 1534 1536 1537 1538 1539 1541 1542 1543 1543 1544 1545 1545 1545 1546 1546 1547 1547 1547 1547
1502 1503 1505 1505 1506 1507 1508 1509 1510 1511 1513 1514 1515 1517 1518 1520 1521 1522 1524 1526 1528 1529 1530 1531 1532 1534 1535 1537 1538 1539 1540 1541 1541 1542 1543 1543 1544 1544 1545 1545 1546 1546 1546
1500 1502 1503 1504 1505 1506 1506 1507 1508 1510 1511 1512 1514 1515 1516 1518 1519 1521 1522 1524 1526 1527 1528 1529 1531 1532 1533 1535 1536 1537 1538 1539 1540 1541 1541 1542 1542 1543 1543 1544 1544 1545 1545
1499 1500 1501 1502 1503 1504 1505 1505 1507 1508 1509 1510 1512 1513 1515 1516 1517 1519 1520 1522 1523 1525 1526 1527 1529 1530 1531 1533 1534 1535 1536 1537 1538 1539 1539 1540 1540 1541 1541 1542 1542 1543 1544
1497 1498 1499 1500 1501 1501 1502 1503 1504 1506 1507 1509 1510 1511 1513 1514 1515 1517 1518 1519 1521 1522 1524 1525 1526 1527 1529 1530 1532 1533 1534 1535 1536 1536 1537 1538 1538 1539 1540 1540 1541 1541 1542
1495 1496 1497 1498 1499 1499 1500 1501 1503 1504 1505 1506 1508 1509 1510 1512 1513 1514 1516 1517 1519 1520 1522 1523 1524 1526 1527 1528 1529 1531 1531 1532 1533 1534 1535 1535 1536 1537 1537 1538 1539 1539 1540
1493 1494 1495 1496 1496 1497 1498 1499 1501 1502 1503 1505 1506 1507 1508 1509 1510 1512 1513 1515 1516 1518 1519 1521 1522 1523 1525 1526 1527 1528 1529 1529 1530 1531 1532 1533 1534 1534 1535 1536 1536 1537 1538
1491 1492 1493 1493 1494 1495 1496 1497 1499 1500 1501 1502 1503 1504 1505 1507 1508 1509 1511 1512 1514 1515 1517 1518 1520 1521 1523 1524 1525 1526 1526 1527 1528 1528 1529 1530 1531 1532 1533 1534 1534 1535 1535
1489 1490 1491 1492 1493 1493 1494 1495 1497 1498 1499 1500 1501 1502 1503 1504 1505 1507 1508 1510 1511 1513 1514 1515 1516 1518 1519 1520 1521 1522 1523 1524 1525 1526 1526 1527 1528 1529 1530 1531 1531 1532 1532
1486 1487 1488 1489 1490 1491 1492 1493 1494 1496 1497 1497 1498 1499 1500 1501 1503 1504 1505 1506 1508 1509 1510 1512 1513 1514 1515 1516 1517 1518 1520 1521 1522 1523 1524 1525 1525 1526 1527 1528 1528 1529 1529
1484 1485 1486 1486 1488 1489 1489 1491 1492 1493 1494 1495 1496 1497 1498 1499 1500 1501 1502 1503 1504 1506 1507 1508 1509 1511 1511 1512 1514 1514 1516 1517 1518 1519 1520 1521 1522 1522 1523 1524 1525 1525 1526
1482 1482 1483 1483 1485 1486 1486 1487 1489 1490 1491 1492 1493 1494 1495 1496 1497 1497 1499 1500 1502 1503 1504 1505 1506 1507 1508 1509 1510 1511 1512 1513 1514 1515 1515 1516 1517 1518 1519 1520 1521 1522 1522